Location: Kernascl�den
(48.0062°N, 3.3198°W)
Time: 08:53:57
(UTC+00:00)

CSL-04 Debris - Visible Passes

Search period start: 09 May 2021 00:00
Search period end: 19 May 2021 00:00
Orbit: 826 x 849 km, 98.9° (Epoch: 08 May)

Date Brightness Start Highest point End Pass type
(mag) Time Alt. Az. Time Alt. Az. Time Alt. Az.
09 May 6.8 21:01:18 10° WSW 21:04:06 14° W 21:06:55 10° NW visible
10 May 6.7 20:44:21 10° SW 20:48:09 19° W 20:51:58 10° NW visible
11 May 6.3 20:27:47 10° SSW 20:32:14 26° W 20:36:42 10° NW visible
12 May 5.9 20:11:28 10° SSW 20:16:22 34° W 20:21:16 10° NNW visible
15 May 6.9 21:07:58 10° WSW 21:10:12 12° W 21:12:27 10° WNW visible
16 May 6.7 20:50:46 10° SW 20:54:14 17° W 20:57:44 10° NW visible
17 May 6.4 20:34:05 10° SW 20:38:19 23° W 20:42:33 10° NW visible
